[[{"header":{"parameterUnit":"m.s-1","parameterCategory":1,"la1":30.2991,"la2":30.254,"lo1":-89.0895,"lo2":-89.0444,"dy":0.0017,"dx":0.0017,"nx":28,"ny":28,"refTime":"2023-07-29T21:00:00:Z","depth":0,"parameterNumber":2,"parameterNumberName":"U-component_of_WINDS"},"data":[0,0,0,0,0,0,0,0,0,0,0,0,0,0,0,0,0,0,0,0,0,0,0,0,0,0,0,0,0,0,0,0,0,0,0,0,0,0,0,0,0,0,0,0,0,0,0,0,0,0,0,0,0,0,0,0,0,0,3.7929,3.793,0,3.7963,3.7964,3.7964,3.787,3.7867,3.7864,3.7861,3.7899,3.7902,3.7906,0,0,0,0,0,0,0,0,0,0,0,0,0,3.7783,3.7786,3.7929,3.793,3.793,3.7963,3.7964,3.7964,3.7871,3.7867,3.7863,3.786,3.7897,3.7902,3.7906,0,0,0,0,0,0,0,0,0,0,0,0,0,3.7835,3.7788,3.7929,3.7887,3.7884,3.7963,3.7964,3.7964,3.7871,3.7867,3.7863,3.7858,3.7896,3.7901,3.7907,3.8029,0,0,3.7924,3.7926,0,0,0,0,0,0,0,0,3.7832,3.7841,3.7893,3.789,3.7887,3.7908,3.7926,3.7986,3.7872,3.7876,3.7861,3.7856,3.7905,3.791,3.7926,3.8031,3.8032,3.7924,3.7928,3.793,3.7932,0,0,0,0,0,0,0,3.7829,3.7839,3.7943,3.7894,3.789,3.7867,3.7869,3.7937,3.7915,3.7876,3.7869,3.7874,3.7903,3.7921,3.7926,3.8033,3.7924,3.7929,3.7933,3.7935,3.8235,3.824,0,0,0,0,0,0,3.7831,3.7836,3.7942,3.7944,3.7848,3.7873,3.7876,3.7906,3.7914,3.7911,3.7878,3.7869,3.7913,3.792,3.7927,3.8067,3.793,3.7935,3.7938,3.8231,3.8236,3.8241,0,0,0,0,0,0,3.7828,3.7841,3.794,3.7888,3.7899,3.788,3.7914,3.7909,3.7926,3.7916,3.7911,3.79,3.791,3.7919,3.8003,3.8067,3.7938,3.7943,3.8225,3.8232,3.8239,3.8351,0,0,0,0,0,0,3.7824,3.784,3.7887,3.789,3.7902,3.8016,3.7918,3.7912,3.7936,3.7926,3.7935,3.7933,3.7908,3.7995,3.8009,3.8073,3.7947,3.8219,3.8228,3.8236,3.8341,3.8361,3.8377,0,0,0,0,0,3.7819,3.7918,3.789,3.7903,3.796,3.802,3.8027,3.7995,3.7942,3.7988,3.798,3.7933,3.8059,3.8005,3.8019,3.8086,3.8215,3.8226,3.8236,3.8333,3.8357,3.8377,0,0,0,0,0,0,3.7925,3.7918,3.7886,3.799,3.8006,3.8004,3.8061,3.8022,3.8055,3.8044,3.8004,3.8007,3.8097,3.81,3.804,3.8202,3.8128,3.8141,3.8197,3.8219,3.8237,3.8233,3.7952,0,0,0,0,0,3.796,3.8009,3.8001,3.8093,3.8103,3.8081,3.8106,3.808,3.8096,3.8102,3.8101,3.8119,3.8161,3.8191,3.823,3.8342,3.8341,3.8394,3.8413,3.8427,3.8439,3.8494,3.8517,3.8275,3.8275,3.8275,0,0,3.8034,3.8036,3.807,3.8114,3.8124,3.8175,3.8088,3.8147,3.8184,3.8112,3.8189,3.8189,3.8206,3.8303,3.8346,3.8308,3.8506,3.8441,3.8453,3.8456,3.8508,3.853,3.8551,3.8283,3.8281,3.828,0,0,3.8193,3.8201,3.8276,3.8287,3.8302,3.8286,3.8305,3.8309,3.8305,3.8382,3.8328,3.8372,3.8449,3.8461,3.8478,3.8639,3.8596,3.8654,3.8747,3.8802,3.8821,3.8837,3.8892,3.8912,3.8666,3.8666,3.8666,0,3.8282,3.8357,3.8321,3.8382,3.8402,3.8337,3.8412,3.8425,3.8453,3.8468,3.8426,3.8517,3.8524,3.8621,3.866,3.8677,3.8695,3.8651,3.8821,3.8837,3.8852,3.8903,3.8924,3.8673,3.8672,3.8671,3.8671,0,3.8465,3.8517,3.8576,3.8602,3.8629,3.8698,3.8671,3.8702,3.8674,3.8662,3.874,3.8746,3.8784,3.8806,3.878,3.8899,3.8874,3.8828,3.8751,3.8882,3.893,3.8949,3.8682,3.868,3.8678,3.8676,0,0,3.8692,3.8694,3.8716,3.8726,3.8736,3.8776,3.8841,3.8876,3.8903,3.8924,3.8976,3.904,3.8995,3.9014,3.8989,3.9037,3.916,3.8983,3.8983,3.9013,3.9288,3.9321,3.9345,3.9132,3.9136,3.9139,3.9286,0,3.8846,3.8955,3.8922,3.9032,3.9078,3.9017,3.9073,3.9085,3.9076,3.9114,3.9104,3.9149,3.9089,3.9099,3.9144,3.9136,3.9214,3.9125,3.9178,3.918,3.9173,3.937,3.9406,3.9545,3.9304,3.9308,3.931,0,3.904,3.9066,3.9179,3.9179,3.9197,3.9248,3.9276,3.9313,3.9326,3.9315,3.9335,3.9299,3.9361,3.9286,3.937,3.931,3.933,3.9329,3.9334,3.9335,3.9251,3.9374,3.9588,3.9608,3.9339,3.9337,3.9335,0,3.9189,3.9253,3.9328,3.9339,3.9341,3.9378,3.9381,3.9388,3.941,3.9436,3.9449,3.9482,3.95,3.9526,3.9498,3.9447,3.9586,3.9509,3.9577,3.9578,3.9607,3.9605,3.9825,3.9626,3.9625,3.9625,3.9625,0,3.9363,3.9434,3.9395,3.9441,3.9518,3.948,3.9558,3.9554,3.9561,3.9604,3.9555,3.9597,3.956,3.9598,3.9578,3.9648,3.9658,3.965,3.9643,3.9653,3.9653,3.9663,3.9652,3.963,3.9629,3.9628,3.9627,0,3.9542,3.9519,3.9596,3.9591,3.9592,3.9649,3.9644,3.9686,3.9673,3.9728,3.9739,3.9719,3.9761,3.9737,3.9782,3.9767,3.9858,3.984,3.9854,3.9847,3.9915,3.9908,4.0147,4.0174,3.9961,3.9963,3.9965,0,3.9653,3.9706,3.9706,3.973,3.9736,3.9777,3.9799,3.9764,3.9788,3.9804,3.9844,3.9882,3.9909,3.998,3.9969,4.0002,3.9982,4.0063,3.9987,3.9994,3.9979,3.9975,3.9979,4.0078,4.0081,4.0083,4.0084,0,3.9851,3.9836,3.9869,3.9897,3.9923,3.9944,3.9961,3.9984,3.9949,3.9979,4.002,4.0042,4.0086,4.0123,4.0151,4.0153,4.0113,4.0109,4.0125,4.0134,4.0138,4.0134,3.9892,4.0103,4.0101,4.01,4.0099,4.0098,3.9997,4.004,4.0045,4.0082,4.009,4.0106,4.0144,4.0135,4.0168,4.02,4.0178,4.0226,4.0235,4.0267,4.0275,4.0312,4.0279,4.0305,4.031,4.0316,4.0324,4.0135,4.0317,4.0317,4.0316,4.0316,4.0315,0,4.0189,4.0189,4.0224,4.0247,4.0276,4.0234,4.025,4.0277,4.0319,4.033,4.0358,4.0405,4.044,4.0431,4.0463,4.0494,4.0476,4.0503,4.0499,4.05,4.0353,4.0334,4.0517,4.0517,4.0517,4.0517,4.0517,4.0517,4.0293,4.0361,4.0346,4.0418,4.0417,4.0463,4.0475,4.0489,4.0497,4.055,4.0579,4.0572,4.0575,4.0606,4.0636,4.0632,4.0645,4.0678,4.0668,4.0531,4.0511,4.0491,4.0473,4.0682,4.0682,4.081,4.0812,4.0813]},{"header":{"parameterUnit":"m.s-1","parameterCategory":1,"la1":30.2991,"la2":30.254,"lo1":-89.0895,"lo2":-89.0444,"dy":0.0017,"dx":0.0017,"nx":28,"ny":28,"refTime":"2023-07-29T21:00:00:Z","depth":0,"parameterNumber":3,"parameterNumberName":"V-component_of_WINDS"},"data":[0,0,0,0,0,0,0,0,0,0,0,0,0,0,0,0,0,0,0,0,0,0,0,0,0,0,0,0,0,0,0,0,0,0,0,0,0,0,0,0,0,0,0,0,0,0,0,0,0,0,0,0,0,0,0,0,0,0,3.2057,3.2058,0,3.2149,3.215,3.2151,3.2152,3.215,3.2149,3.2148,3.2239,3.2242,3.2246,0,0,0,0,0,0,0,0,0,0,0,0,0,3.1876,3.188,3.2056,3.2058,3.2059,3.2149,3.215,3.2151,3.2152,3.215,3.2149,3.2148,3.2238,3.2242,3.2246,0,0,0,0,0,0,0,0,0,0,0,0,0,3.196,3.1881,3.2056,3.207,3.2072,3.2148,3.215,3.2152,3.2152,3.215,3.2149,3.2147,3.2236,3.2241,3.2246,3.2314,0,0,3.2263,3.2265,0,0,0,0,0,0,0,0,3.1955,3.1967,3.2067,3.2069,3.2072,3.2137,3.212,3.2206,3.2152,3.2122,3.2148,3.2146,3.2206,3.2214,3.2235,3.2318,3.2322,3.2263,3.2266,3.2268,3.227,0,0,0,0,0,0,0,3.195,3.1963,3.2093,3.2068,3.2071,3.207,3.208,3.2136,3.2172,3.2124,3.2124,3.2136,3.2207,3.223,3.2237,3.2324,3.2263,3.2268,3.2271,3.2273,3.2466,3.2468,0,0,0,0,0,0,3.1942,3.1958,3.209,3.2096,3.2008,3.2075,3.2086,3.2118,3.2172,3.2178,3.2137,3.2135,3.2222,3.2231,3.224,3.2322,3.2268,3.2273,3.2276,3.2464,3.2466,3.2468,0,0,0,0,0,0,3.1938,3.1953,3.2086,3.2027,3.2044,3.208,3.2115,3.212,3.2143,3.2182,3.2188,3.2154,3.2221,3.2233,3.2296,3.2325,3.2276,3.2281,3.2461,3.2464,3.2467,3.2486,0,0,0,0,0,0,3.1933,3.1952,3.1979,3.2028,3.2047,3.2142,3.2117,3.2124,3.2153,3.2151,3.2199,3.2205,3.222,3.2288,3.2301,3.2331,3.2285,3.2459,3.2463,3.2466,3.2483,3.2489,3.2494,0,0,0,0,0,3.1926,3.198,3.198,3.1996,3.2082,3.2143,3.2154,3.2172,3.2155,3.2182,3.2206,3.2203,3.232,3.2294,3.2309,3.2341,3.2457,3.2462,3.2466,3.248,3.2488,3.2494,0,0,0,0,0,0,3.1933,3.1987,3.1988,3.2059,3.2097,3.2143,3.2177,3.2179,3.2221,3.2218,3.2237,3.2247,3.231,3.2332,3.2303,3.2409,3.2386,3.2394,3.2392,3.24,3.2405,3.2398,3.2289,0,0,0,0,0,3.1943,3.199,3.2034,3.2092,3.2111,3.2141,3.2169,3.2179,3.2218,3.2234,3.2263,3.23,3.2344,3.2373,3.2417,3.2486,3.2496,3.2516,3.2521,3.2526,3.2532,3.2569,3.2578,3.2483,3.2483,3.2483,0,0,3.1963,3.1999,3.2027,3.2095,3.2125,3.2171,3.2155,3.2205,3.2239,3.2241,3.2302,3.2325,3.2367,3.2433,3.2464,3.2454,3.256,3.2532,3.2535,3.2538,3.2574,3.2583,3.2591,3.2486,3.2485,3.2485,0,0,3.2024,3.2057,3.2108,3.2139,3.2186,3.2205,3.2218,3.2264,3.228,3.2342,3.2344,3.2384,3.2462,3.2491,3.2516,3.2589,3.2587,3.2602,3.2632,3.2668,3.2675,3.2682,3.2706,3.2715,3.2608,3.2608,3.2608,0,3.2043,3.2115,3.2134,3.2185,3.2214,3.2219,3.2271,3.2299,3.2357,3.2376,3.2365,3.2461,3.249,3.2562,3.258,3.2601,3.2614,3.2596,3.2673,3.268,3.2686,3.2709,3.2719,3.261,3.261,3.2609,3.2609,0,3.2135,3.2185,3.2221,3.2278,3.2311,3.2362,3.2387,3.2419,3.2426,3.2446,3.2509,3.2544,3.2594,3.2612,3.262,3.2685,3.2677,3.2669,3.2647,3.2696,3.2718,3.2728,3.2612,3.2611,3.2611,3.261,0,0,3.2202,3.2269,3.2282,3.2307,3.2359,3.2397,3.2448,3.2498,3.2523,3.2563,3.2604,3.267,3.2662,3.2691,3.2702,3.2733,3.2786,3.2721,3.2722,3.273,3.2859,3.2864,3.2874,3.2786,3.2788,3.2789,3.2855,0,3.2267,3.2358,3.2377,3.2455,3.25,3.2506,3.2549,3.2585,3.2605,3.2645,3.2668,3.2713,3.2701,3.2718,3.2749,3.2773,3.2812,3.2769,3.2823,3.2825,3.2811,3.2886,3.2891,3.2951,3.2864,3.2865,3.2866,0,3.2355,3.2398,3.2481,3.2526,3.2546,3.2585,3.2632,3.2671,3.2711,3.2723,3.2755,3.2763,3.2813,3.279,3.2859,3.2829,3.2853,3.2868,3.2871,3.2875,3.2847,3.289,3.2971,3.2979,3.2881,3.2879,3.2878,0,3.2393,3.2472,3.2531,3.2553,3.2608,3.2635,3.2658,3.2697,3.2726,3.2766,3.2785,3.2831,3.2855,3.289,3.2909,3.289,3.2976,3.2955,3.2986,3.2986,3.3003,3.3001,3.3087,3.3021,3.3021,3.3021,3.302,0,3.2463,3.2513,3.2549,3.2585,3.2641,3.2662,3.2716,3.2739,3.2773,3.2813,3.2821,3.2858,3.2881,3.2921,3.2936,3.2991,3.3002,3.3012,3.3015,3.3011,3.3009,3.3025,3.302,3.3023,3.3023,3.3022,3.3022,0,3.2514,3.2541,3.2606,3.2652,3.2665,3.2704,3.2743,3.2778,3.2799,3.2849,3.2862,3.2894,3.2941,3.2964,3.3022,3.3032,3.3093,3.3095,3.308,3.3081,3.3111,3.3107,3.3208,3.3222,3.3148,3.3149,3.315,0,3.2556,3.2595,3.2646,3.2674,3.2699,3.2743,3.2773,3.2795,3.2825,3.2874,3.2902,3.295,3.2989,3.3064,3.3092,3.3136,3.3137,3.317,3.3144,3.3138,3.3136,3.3132,3.3136,3.3174,3.3174,3.3175,3.3175,0,3.2627,3.2639,3.2681,3.2729,3.2764,3.2803,3.284,3.2862,3.289,3.2923,3.2972,3.3003,3.3063,3.3109,3.3156,3.3179,3.3181,3.3184,3.3193,3.3188,3.3177,3.3182,3.3091,3.3181,3.318,3.318,3.318,3.3179,3.2674,3.2708,3.2749,3.2797,3.2828,3.2862,3.2897,3.2923,3.2964,3.3016,3.3026,3.3078,3.3116,3.3179,3.3203,3.3243,3.3235,3.3249,3.3252,3.3255,3.3256,3.3172,3.3251,3.3251,3.3251,3.3251,3.3251,0,3.2744,3.2771,3.2814,3.2867,3.2904,3.2905,3.2946,3.2977,3.3022,3.3059,3.3098,3.3153,3.3199,3.323,3.3276,3.3302,3.3304,3.3313,3.331,3.3315,3.3261,3.3247,3.331,3.331,3.331,3.331,3.331,3.331,3.2784,3.2842,3.2858,3.293,3.2957,3.3008,3.3031,3.3063,3.3092,3.3154,3.3193,3.3214,3.3247,3.3296,3.3337,3.3345,3.336,3.3369,3.3377,3.3325,3.3319,3.3313,3.33,3.3373,3.3373,3.3427,3.3428,3.3428]}]]